UAL2220 PHOG-KLAX

Flight info

Callsign UAL2220
Flight time N/A
Altitude 35000
Route CLUTS R465 CIVIT R585 GITLE ADUMM GALIP AUDIA SNAXX RYDRR2
Aircraft B738/M-SDE2E3FGHIRWXY/LB1

Departure

Time 2026-04-20 23:53
Airport Kahului International Airport (PHOG)

Arrival

Time N/A
Airport Los Angeles International Airport (KLAX)
Time Latitude Longitude Altitude Speed Heading
2026-04-20 23:32 20.89448 -156.43564 44 ft 0 kts 304°
2026-04-20 23:44 20.89440 -156.43552 44 ft 4 kts 304°
2026-04-20 23:44 20.89425 -156.43528 42 ft 4 kts 304°
2026-04-20 23:44 20.89410 -156.43504 42 ft 4 kts 300°
2026-04-20 23:44 20.89398 -156.43478 39 ft 4 kts 291°
2026-04-20 23:45 20.89392 -156.43460 42 ft 4 kts 277°
2026-04-20 23:45 20.89395 -156.43436 43 ft 4 kts 225°
2026-04-20 23:45 20.89399 -156.43432 41 ft 1 kts 215°
2026-04-20 23:47 20.89381 -156.43446 43 ft 7 kts 215°
2026-04-20 23:47 20.89325 -156.43487 44 ft 11 kts 215°
2026-04-20 23:47 20.89258 -156.43538 44 ft 13 kts 215°
2026-04-20 23:48 20.89183 -156.43594 43 ft 13 kts 215°
2026-04-20 23:48 20.89111 -156.43648 44 ft 13 kts 215°
2026-04-20 23:48 20.89054 -156.43691 43 ft 3 kts 214°
2026-04-20 23:48 20.89053 -156.43692 43 ft 0 kts 214°
2026-04-20 23:51 20.89052 -156.43693 44 ft 2 kts 214°
2026-04-20 23:51 20.89004 -156.43706 44 ft 10 kts 168°
2026-04-20 23:51 20.88955 -156.43657 44 ft 10 kts 129°
2026-04-20 23:52 20.88945 -156.43611 44 ft 7 kts 45°
2026-04-20 23:52 20.88960 -156.43599 43 ft 0 kts 34°
2026-04-20 23:52 20.88977 -156.43587 43 ft 21 kts 34°
2026-04-20 23:52 20.89317 -156.43334 44 ft 96 kts 35°
2026-04-20 23:53 20.90045 -156.42787 45 ft 158 kts 36°
2026-04-20 23:53 20.91010 -156.42014 517 ft 182 kts 38°
2026-04-20 23:53 20.92041 -156.41156 1296 ft 194 kts 38°
2026-04-20 23:53 20.93190 -156.40219 1591 ft 220 kts 37°
2026-04-20 23:54 20.94464 -156.39181 1909 ft 235 kts 37°
2026-04-20 23:54 20.95808 -156.38080 2295 ft 252 kts 37°
2026-04-20 23:54 20.97204 -156.36934 2894 ft 258 kts 37°
2026-04-20 23:54 20.98636 -156.35755 3667 ft 261 kts 37°
2026-04-20 23:55 21.00092 -156.34555 4335 ft 267 kts 37°
2026-04-20 23:55 21.01581 -156.33323 4984 ft 274 kts 37°
2026-04-20 23:55 21.03087 -156.32076 5789 ft 273 kts 37°
2026-04-20 23:55 21.04606 -156.30817 6404 ft 280 kts 37°
2026-04-20 23:56 21.06152 -156.29536 7098 ft 281 kts 37°
2026-04-20 23:56 21.07713 -156.28242 7691 ft 287 kts 37°
2026-04-20 23:56 21.09298 -156.26927 8363 ft 288 kts 37°
2026-04-20 23:56 21.10889 -156.25606 9037 ft 292 kts 37°
2026-04-20 23:57 21.12504 -156.24265 9681 ft 295 kts 37°
2026-04-20 23:57 21.14136 -156.22908 10254 ft 301 kts 37°
2026-04-20 23:57 21.15851 -156.21485 10407 ft 323 kts 37°
2026-04-20 23:57 21.17659 -156.19983 10792 ft 334 kts 37°
2026-04-20 23:58 21.19507 -156.18446 11376 ft 337 kts 37°
2026-04-20 23:58 21.21370 -156.16896 11992 ft 340 kts 36°
2026-04-20 23:58 21.23250 -156.15330 12599 ft 344 kts 36°
2026-04-20 23:58 21.25151 -156.13747 13195 ft 348 kts 36°
2026-04-20 23:59 21.27071 -156.12148 13807 ft 351 kts 36°
2026-04-20 23:59 21.29010 -156.10531 14305 ft 356 kts 36°
2026-04-20 23:59 21.30976 -156.08892 14847 ft 359 kts 36°
2026-04-20 23:59 21.32929 -156.07264 15411 ft 362 kts 36°
2026-04-21 00:00 21.34924 -156.05600 15985 ft 364 kts 36°
2026-04-21 00:00 21.36936 -156.03921 16497 ft 368 kts 36°
2026-04-21 00:00 21.38968 -156.02224 17039 ft 372 kts 36°
2026-04-21 00:00 21.41018 -156.00512 17577 ft 375 kts 36°
2026-04-21 00:01 21.43084 -155.98785 18111 ft 378 kts 35°
2026-04-21 00:01 21.45171 -155.97042 18586 ft 381 kts 35°
2026-04-21 00:01 21.47269 -155.95288 19072 ft 383 kts 35°
2026-04-21 00:01 21.49381 -155.93523 19561 ft 386 kts 35°
2026-04-21 00:02 21.51505 -155.91746 20047 ft 388 kts 35°
2026-04-21 00:02 21.53640 -155.89960 20513 ft 390 kts 34°
2026-04-21 00:02 21.55787 -155.88162 20985 ft 393 kts 34°
2026-04-21 00:02 21.57946 -155.86353 21459 ft 395 kts 34°
2026-04-21 00:03 21.60118 -155.84532 21906 ft 397 kts 34°
2026-04-21 00:03 21.62306 -155.82698 22359 ft 400 kts 34°
2026-04-21 00:03 21.64505 -155.80854 22807 ft 402 kts 34°
2026-04-21 00:03 21.66719 -155.78997 23235 ft 405 kts 34°
2026-04-21 00:04 21.68948 -155.77126 23648 ft 407 kts 34°
2026-04-21 00:04 21.70432 -155.75880 23883 ft 409 kts 34°
2026-04-21 00:04 21.72677 -155.73993 24227 ft 411 kts 34°
2026-04-21 00:04 21.74937 -155.72095 24580 ft 413 kts 34°
2026-04-21 00:05 21.77952 -155.69561 25043 ft 416 kts 34°
2026-04-21 00:05 21.80240 -155.67637 25376 ft 419 kts 34°
2026-04-21 00:05 21.81795 -155.66329 25607 ft 420 kts 34°
2026-04-21 00:05 21.84106 -155.64384 25947 ft 422 kts 34°
2026-04-21 00:06 21.86426 -155.62431 26272 ft 424 kts 34°
2026-04-21 00:06 21.88725 -155.60495 26614 ft 426 kts 34°
2026-04-21 00:06 21.91065 -155.58523 26933 ft 428 kts 34°
2026-04-21 00:06 21.93417 -155.56540 27236 ft 430 kts 34°
2026-04-21 00:07 21.95783 -155.54544 27524 ft 433 kts 34°
2026-04-21 00:07 21.98162 -155.52537 27815 ft 435 kts 35°
2026-04-21 00:07 22.00552 -155.50521 28106 ft 438 kts 35°
2026-04-21 00:07 22.02956 -155.48491 28400 ft 440 kts 35°
2026-04-21 00:08 22.05374 -155.46448 28691 ft 442 kts 35°
2026-04-21 00:08 22.07797 -155.44399 28965 ft 444 kts 35°
2026-04-21 00:08 22.10255 -155.42341 29269 ft 448 kts 34°
2026-04-21 00:08 22.12718 -155.40283 29596 ft 449 kts 35°
2026-04-21 00:09 22.15172 -155.38195 29812 ft 450 kts 36°
2026-04-21 00:09 22.17642 -155.36093 29962 ft 455 kts 36°
2026-04-21 00:09 22.20944 -155.33280 30287 ft 457 kts 36°
2026-04-21 00:09 22.22595 -155.31874 30447 ft 457 kts 36°
2026-04-21 00:10 22.25098 -155.29746 30675 ft 459 kts 36°
2026-04-21 00:10 22.27609 -155.27613 30901 ft 460 kts 36°
2026-04-21 00:10 22.30127 -155.25476 31097 ft 462 kts 36°
2026-04-21 00:10 22.32666 -155.23328 31325 ft 464 kts 36°
2026-04-21 00:11 22.35202 -155.21175 31559 ft 464 kts 36°
2026-04-21 00:11 22.37748 -155.19009 31755 ft 466 kts 36°
2026-04-21 00:11 22.40301 -155.16836 31932 ft 468 kts 36°
2026-04-21 00:11 22.42863 -155.14656 32112 ft 469 kts 36°
2026-04-21 00:12 22.45435 -155.12466 32307 ft 471 kts 36°
2026-04-21 00:12 22.48011 -155.10271 32490 ft 472 kts 36°
2026-04-21 00:12 22.50596 -155.08071 32660 ft 473 kts 37°
2026-04-21 00:12 22.53186 -155.05862 32816 ft 475 kts 37°
2026-04-21 00:13 22.55779 -155.03649 32987 ft 476 kts 37°
2026-04-21 00:13 22.58384 -155.01425 33143 ft 478 kts 37°
2026-04-21 00:13 22.61000 -154.99191 33289 ft 479 kts 37°
2026-04-21 00:13 22.63619 -154.96953 33431 ft 481 kts 37°
2026-04-21 00:14 22.66249 -154.94707 33574 ft 482 kts 37°
2026-04-21 00:14 22.68888 -154.92452 33716 ft 484 kts 37°
2026-04-21 00:14 22.71535 -154.90188 33853 ft 485 kts 37°
2026-04-21 00:14 22.74180 -154.87923 34046 ft 485 kts 37°
2026-04-21 00:15 22.76825 -154.85657 34231 ft 484 kts 37°
2026-04-21 00:15 22.79467 -154.83393 34394 ft 484 kts 37°
2026-04-21 00:15 22.82105 -154.81131 34533 ft 485 kts 37°
2026-04-21 00:15 22.84752 -154.78862 34664 ft 485 kts 37°
2026-04-21 00:16 22.87399 -154.76591 34813 ft 485 kts 37°
2026-04-21 00:16 22.90042 -154.74321 34997 ft 484 kts 37°
2026-04-21 00:16 22.92690 -154.72045 35031 ft 487 kts 37°
2026-04-21 00:17 22.97989 -154.67486 35046 ft 491 kts 38°
2026-04-21 00:17 23.02612 -154.62021 35038 ft 494 kts 56°
2026-04-21 00:18 23.06370 -154.55761 35044 ft 496 kts 57°
2026-04-21 00:18 23.10118 -154.49462 35040 ft 497 kts 57°
2026-04-21 00:19 23.13905 -154.43188 35034 ft 496 kts 56°
2026-04-21 00:19 23.17704 -154.36944 35040 ft 495 kts 56°
2026-04-21 00:20 23.21494 -154.30706 35030 ft 495 kts 56°
2026-04-21 00:20 23.25205 -154.24431 34971 ft 495 kts 57°
2026-04-21 00:21 23.29018 -154.18224 34992 ft 492 kts 56°
2026-04-21 00:21 23.32771 -154.12112 35030 ft 486 kts 56°
2026-04-21 00:22 23.36480 -154.05986 35040 ft 482 kts 56°
2026-04-21 00:22 23.40158 -153.99892 35044 ft 480 kts 56°
2026-04-21 00:23 23.43820 -153.93810 35044 ft 480 kts 56°
2026-04-21 00:23 23.47485 -153.87723 35049 ft 481 kts 56°
2026-04-21 00:24 23.51131 -153.81662 35051 ft 482 kts 56°
2026-04-21 00:24 23.54808 -153.75544 35051 ft 484 kts 56°
2026-04-21 00:25 23.58497 -153.69395 35051 ft 485 kts 56°
2026-04-21 00:25 23.62202 -153.63215 35052 ft 487 kts 56°
2026-04-21 00:26 23.65903 -153.57029 35049 ft 487 kts 56°
2026-04-21 00:26 23.69579 -153.50884 35052 ft 487 kts 56°
2026-04-21 00:27 23.73271 -153.44701 35055 ft 486 kts 56°
2026-04-21 00:27 23.76962 -153.38516 35052 ft 485 kts 56°
2026-04-21 00:28 23.80642 -153.32350 35055 ft 484 kts 56°
2026-04-21 00:28 23.84327 -153.26198 35054 ft 483 kts 56°
2026-04-21 00:29 23.88008 -153.20049 35056 ft 482 kts 56°
2026-04-21 00:29 23.91647 -153.13957 35060 ft 482 kts 56°
2026-04-21 00:30 23.95304 -153.07823 35055 ft 481 kts 56°
2026-04-21 00:30 23.98948 -153.01701 35058 ft 480 kts 56°
2026-04-21 00:31 24.02581 -152.95585 35057 ft 479 kts 56°
2026-04-21 00:31 24.06196 -152.89471 35057 ft 477 kts 56°
2026-04-21 00:32 24.09817 -152.83376 35041 ft 477 kts 56°
2026-04-21 00:32 24.13439 -152.77289 35063 ft 478 kts 56°
2026-04-21 00:33 24.17083 -152.71189 35072 ft 479 kts 55°
2026-04-21 00:33 24.20693 -152.65098 35055 ft 481 kts 56°
2026-04-21 00:34 24.24368 -152.58960 35031 ft 481 kts 56°
2026-04-21 00:34 24.27957 -152.52795 35048 ft 478 kts 56°
2026-04-21 00:35 24.31602 -152.46667 35049 ft 479 kts 56°
2026-04-21 00:35 24.35163 -152.40495 35084 ft 481 kts 56°
2026-04-21 00:36 24.38721 -152.34325 35079 ft 478 kts 57°
2026-04-21 00:36 24.42391 -152.28246 35068 ft 477 kts 58°
2026-04-21 00:37 24.45909 -152.22181 35061 ft 469 kts 56°
2026-04-21 00:37 24.49452 -152.16092 35101 ft 476 kts 55°
2026-04-21 00:38 24.53070 -152.09949 35035 ft 482 kts 56°
2026-04-21 00:38 24.56692 -152.03723 35064 ft 484 kts 56°
2026-04-21 00:39 24.60293 -151.97516 35056 ft 478 kts 56°
2026-04-21 00:39 24.63856 -151.91399 35078 ft 474 kts 56°
2026-04-21 00:40 24.67404 -151.85282 35070 ft 475 kts 57°
2026-04-21 00:40 24.70964 -151.79143 35068 ft 481 kts 56°
2026-04-21 00:41 24.74621 -151.72993 35064 ft 481 kts 55°
2026-04-21 00:41 24.78243 -151.66810 35112 ft 479 kts 57°
2026-04-21 00:42 24.81804 -151.60584 35089 ft 481 kts 57°
2026-04-21 00:42 24.85331 -151.54385 35088 ft 480 kts 57°
2026-04-21 00:43 24.88903 -151.48172 35077 ft 480 kts 57°
2026-04-21 00:43 24.92477 -151.41971 35077 ft 479 kts 57°
2026-04-21 00:44 24.96039 -151.35776 35080 ft 478 kts 57°
2026-04-21 00:44 24.99603 -151.29604 35078 ft 477 kts 57°
2026-04-21 00:45 25.04915 -151.20335 35081 ft 477 kts 57°
2026-04-21 00:45 25.08452 -151.14164 35071 ft 476 kts 57°
2026-04-21 00:46 25.11991 -151.07984 35076 ft 477 kts 57°
2026-04-21 00:46 25.15503 -151.01816 35082 ft 475 kts 57°
2026-04-21 00:47 25.19085 -150.95659 35106 ft 476 kts 56°
2026-04-21 00:47 25.22601 -150.89449 35085 ft 478 kts 58°
2026-04-21 00:48 25.26119 -150.83189 35097 ft 480 kts 57°
2026-04-21 00:48 25.29681 -150.76911 35093 ft 484 kts 57°
2026-04-21 00:49 25.33278 -150.70593 35094 ft 487 kts 57°
2026-04-21 00:49 25.36883 -150.64271 35095 ft 490 kts 57°
2026-04-21 00:50 25.40498 -150.57868 35091 ft 492 kts 57°
2026-04-21 00:50 25.44121 -150.51444 35088 ft 491 kts 57°
2026-04-21 00:51 25.47737 -150.45036 35092 ft 490 kts 57°
2026-04-21 00:51 25.51340 -150.38645 35087 ft 488 kts 57°
2026-04-21 00:52 25.54926 -150.32278 35087 ft 486 kts 57°
2026-04-21 00:52 25.57894 -150.27004 35091 ft 484 kts 57°
2026-04-21 00:53 25.61444 -150.20683 35092 ft 483 kts 57°
2026-04-21 00:53 25.64984 -150.14371 35096 ft 481 kts 57°
2026-04-21 00:54 25.68512 -150.08072 35103 ft 481 kts 57°
2026-04-21 00:54 25.72035 -150.01773 35103 ft 481 kts 57°
2026-04-21 00:55 25.75562 -149.95461 35113 ft 482 kts 57°
2026-04-21 00:55 25.79097 -149.89126 35108 ft 483 kts 57°
2026-04-21 00:56 25.82635 -149.82773 35107 ft 484 kts 57°
2026-04-21 00:56 25.86185 -149.76389 35112 ft 486 kts 57°
2026-04-21 00:57 25.89714 -149.70040 35108 ft 487 kts 57°
2026-04-21 00:57 25.93272 -149.63627 35109 ft 488 kts 57°
2026-04-21 00:58 25.96834 -149.57197 35115 ft 488 kts 57°
2026-04-21 00:58 26.00392 -149.50764 35109 ft 489 kts 57°
2026-04-21 00:59 26.03952 -149.44320 35110 ft 489 kts 57°
2026-04-21 00:59 26.07512 -149.37866 35111 ft 489 kts 57°
2026-04-21 01:00 26.11066 -149.31411 35116 ft 489 kts 57°
2026-04-21 01:00 26.14613 -149.24966 35111 ft 488 kts 57°
2026-04-21 01:01 26.18149 -149.18533 35116 ft 487 kts 57°
2026-04-21 01:01 26.21678 -149.12102 35112 ft 486 kts 57°
2026-04-21 01:02 26.25195 -149.05683 35118 ft 485 kts 57°
2026-04-21 01:02 26.28688 -148.99296 35123 ft 485 kts 57°
2026-04-21 01:03 26.32189 -148.92883 35121 ft 484 kts 57°
2026-04-21 01:03 26.35689 -148.86470 35123 ft 484 kts 57°
2026-04-21 01:04 26.39185 -148.80051 35128 ft 484 kts 57°
2026-04-21 01:04 26.42675 -148.73631 35127 ft 484 kts 58°
2026-04-21 01:05 26.46167 -148.67202 35125 ft 485 kts 58°
2026-04-21 01:05 26.49665 -148.60752 35126 ft 486 kts 58°
2026-04-21 01:06 26.53159 -148.54301 35129 ft 486 kts 58°
2026-04-21 01:06 26.56660 -148.47830 35130 ft 487 kts 58°
2026-04-21 01:07 26.60133 -148.41395 35127 ft 487 kts 58°
2026-04-21 01:07 26.63630 -148.34908 35132 ft 487 kts 58°
2026-04-21 01:08 26.67127 -148.28416 35133 ft 487 kts 58°
2026-04-21 01:08 26.70623 -148.21916 35132 ft 487 kts 58°
2026-04-21 01:09 26.74115 -148.15419 35129 ft 487 kts 58°
2026-04-21 01:09 26.77592 -148.08928 35136 ft 486 kts 58°
2026-04-21 01:10 26.81064 -148.02440 35134 ft 486 kts 58°
2026-04-21 01:10 26.84535 -147.95947 35138 ft 485 kts 58°